Regional Weather Roundup
Issued by NWS

Home | Current Version | Previous Version | Text Only | Print | Product List | Glossary On
Versions: 1 2 3 4 5 6 7 8 9 10 11 12 13 14 15 16 17 18 19 20 21 22 23 24 25 26 27 28 29 30 31 32 33 34 35 36 37 38 39 40 41 42 43 44 45 46 47 48 49 50
000
ASUS43 KBIS 250031
RWRND
NORTH DAKOTA REGIONAL WEATHER ROUNDUP
NATIONAL WEATHER SERVICE EASTERN NORTH DAKOTA/GRAND FORKS ND
600 PM CST SAT FEB 24 2018

  NOTE: "FAIR" INDICATES FEW OR NO CLOUDS BELOW 12,000 FEET WITH NO
  SIGNIFICANT WEATHER AND/OR OBSTRUCTIONS TO VISIBILITY.

NDZ001>003-009>011-017-250100-
...NORTHWEST NORTH DAKOTA...

CITY           SKY/WX    TMP DP  RH WIND       PRES   REMARKS
WILLISTON      CLOUDY    23  14  68 SW13      29.59F WCI  11
6HR MIN TEMP:  12; 6HR MAX TEMP:  24;

MINOT          FAIR      21  12  68 S9        29.58F WCI  11
MINOT AFB      FAIR      17  10  75 SW9         N/A  WCI   5
6HR MIN TEMP:  17; 6HR MAX TEMP:  22; 6HR PCP: TRACE;

$$

NDZ018>021-031>035-040>046-250100-
...SOUTHWEST NORTH DAKOTA...

CITY           SKY/WX    TMP DP  RH WIND       PRES   REMARKS
BISMARCK       FAIR      20  12  71 SW6       29.65F WCI  12
DICKINSON      FAIR      16   8  71 W10       29.58F WCI   4
GARRISON         N/A     17   9  70 W9        29.60F WCI   6
HETTINGER      FAIR      16   8  71 W13       29.64F WCI   2
$$

NDZ004>008-012>016-024-026-027-054-250100-
...NORTHEAST NORTH DAKOTA...

CITY           SKY/WX    TMP DP  RH WIND       PRES   REMARKS
GRAND FORKS    LGT SNOW  16  13  88 S7        29.74F VSB 3/4 WCI   6
GRAND FORKS AF LGT SNOW  14  12  92 SE6       29.71F FOG     WCI   5
DEVILS LAKE    FLURRIES  19  17  92 SE12      29.65F WCI   7
$$

NDZ022-023-025-028>030-036>039-047>053-250100-
...SOUTHEAST NORTH DAKOTA...

CITY           SKY/WX    TMP DP  RH WIND       PRES   REMARKS
JAMESTOWN      LGT SNOW  15  13  91 S3        29.64F FOG
FARGO          LGT SNOW  17  15  92 N8        29.68F VSB 1   WCI   7
WAHPETON       CLOUDY    21  19  93 N5        29.67S VSB 1   WCI  15
$$




USA.gov is the U.S. government's official web portal to all federal, state and local government web resources and services.